Change the Weather History Date:

Friday, March 8, 2013

  Actual Average Record
Temperature  
Mean Temperature 35 °F 30 °F  
Max Temperature 45 °F 40 °F 66 °F (2007)
Min Temperature 25 °F 20 °F -8 °F (2003)
Degree Days  
Heating Degree Days 30 35  
Month to date heating degree days 269 292  
Since 1 July heating degree days 5612 5980  
Cooling Degree Days 0 0  
Month to date cooling degree days 0 0  
Year to date cooling degree days 0 0  
Moisture  
Dew Point 27 °F    
Average Humidity 75    
Maximum Humidity 100    
Minimum Humidity 49    
Precipitation  
Precipitation 0.00 in 0.03 in 0.16 in (2011)
Month to date precipitation 0.08 0.16  
Year to date precipitation 0.65 0.78  
Sea Level Pressure  
Sea Level Pressure 30.09 in    
Wind  
Wind Speed 9 mph (ENE)    
Max Wind Speed 22 mph    
Max Gust Speed 24 mph    
T = Trace of Precipitation, MM = Missing Value Source: NWS Daily Summary

Daily Weather History Graph

Daily Weather History Graph

Search for Another Location

Airport or City:

Trip Planner

Search our weather history database for the weather conditions in past years. The results will help you decide how hot, cold, wet, or windy it might be!

Date:

Astronomy

Mar. 08, 2013 Rise Set
Actual Time 6:12 AM MST 5:45 PM MST
Civil Twilight 5:43 AM MST 6:14 PM MST
Nautical Twilight 5:09 AM MST 6:48 PM MST
Astronomical Twilight 4:35 AM MST 7:23 PM MST
Moon 4:05 AM MST (3/8) 2:36 PM MST (3/8)
Length of Visible Light 12h 31m
Length of Day
11h 32m
Waning Crescent, 11% of the Moon is Illuminated
Mar 8
Waning Crescent
Mar 11
New
Mar 19
First Quarter
Mar 27
Full
Apr 2
Last Quarter

Hourly Weather History & Observations

Time (MST) Temp. Windchill Dew Point Humidity Pressure Visibility Wind Dir Wind Speed Gust Speed Precip Events Conditions
12:56 AM 26.1 °F 21.9 °F 24.1 °F 92% 30.21 in - NE 3.5 mph - N/A   Unknown
1:56 AM 25.0 °F 15.5 °F 24.1 °F 96% 30.16 in - NE 9.2 mph - N/A   Unknown
2:56 AM 26.1 °F 18.4 °F 25.0 °F 96% 30.14 in - NNE 6.9 mph - N/A   Unknown
3:56 AM 28.9 °F 25.2 °F 27.0 °F 92% 30.14 in - South 3.5 mph - N/A   Unknown
4:56 AM 28.9 °F - 28.0 °F 96% 30.17 in - Calm Calm - N/A   Unknown
5:56 AM 28.0 °F - 26.1 °F 92% 30.19 in - Calm Calm - N/A   Unknown
6:56 AM 28.9 °F - 27.0 °F 92% 30.19 in - Calm Calm - N/A   Unknown
7:56 AM 30.9 °F - 30.0 °F 96% 30.19 in - Calm Calm - N/A   Unknown
8:56 AM 33.1 °F 25.5 °F 28.9 °F 85% 30.19 in - East 9.2 mph - N/A   Unknown
9:56 AM 34.0 °F 28.0 °F 27.0 °F 75% 30.19 in - East 6.9 mph - N/A   Unknown
10:56 AM 37.0 °F 29.8 °F 27.0 °F 67% 30.16 in - East 10.4 mph - N/A   Unknown
11:56 AM 41.0 °F 35.2 °F 27.0 °F 57% 30.12 in - East 9.2 mph - N/A   Unknown
12:56 PM 42.1 °F 34.9 °F 27.0 °F 55% 30.09 in - East 13.8 mph 19.6 mph N/A   Unknown
1:56 PM 44.1 °F 37.1 °F 27.0 °F 51% 30.03 in - ENE 15.0 mph 21.9 mph N/A   Unknown
2:56 PM 42.1 °F 33.9 °F 27.0 °F 55% 30.01 in - ENE 17.3 mph - N/A   Unknown
3:56 PM 41.0 °F 31.9 °F 26.1 °F 55% 30.00 in - East 19.6 mph - N/A   Unknown
4:56 PM 37.0 °F 27.4 °F 26.1 °F 65% 29.99 in - ENE 17.3 mph - N/A   Unknown
5:56 PM 32.0 °F 21.6 °F 25.0 °F 75% 30.01 in - East 15.0 mph - N/A   Unknown
6:56 PM 30.0 °F 20.5 °F 27.0 °F 88% 30.01 in - East 11.5 mph - N/A   Unknown
7:56 PM 28.9 °F 19.8 °F 27.0 °F 92% 30.02 in - ESE 10.4 mph - N/A   Unknown
8:56 PM 28.0 °F 19.3 °F 27.0 °F 96% 30.02 in - East 9.2 mph - N/A   Unknown
9:56 PM 28.0 °F 24.2 °F 27.0 °F 96% 29.99 in - East 3.5 mph - N/A   Unknown
10:56 PM 27.0 °F 21.6 °F 27.0 °F 100% 29.98 in - ENE 4.6 mph - N/A   Unknown
11:56 PM 27.0 °F 18.7 °F 27.0 °F 100% 29.93 in - NE 8.1 mph - N/A   Unknown